Hourly Data Report for October 22, 2016

All times are specified in Local Standard Time (LST). Add 1 hour to adjust for Daylight Saving Time where and when it is observed.

KAMLOOPS A
BRITISH COLUMBIA

50°42'09.000" N
120°26'55.000" W
345.30 m
1163781
71887
YKA

Download Data

Hourly Data (October 2016)
Hourly Data Report for October 22, 2016
Temp Definition
°C
Dew Point Temp Definition
°C
Rel Hum Definition
%
Wind Dir Definition
10's deg

Wind Spd Definition
km/h
Visibility Definition
km
Stn Press Definition
kPa
Hmdx Definition


Wind Chill Definition


Weather Definition


TIME
00:00 Legend Double Dagger 9.7 3.3 64 6 11 64.4 96.95     LegendNANA
01:00 Legend Double Dagger 8.7 3.2 68 27 5 64.4 96.98     Mostly Cloudy
02:00 Legend Double Dagger 5.3 2.7 83 34 4 64.4 97.03     LegendNANA
03:00 Legend Double Dagger 5.4 2.1 79 27 11 64.4 97.10     LegendNANA
04:00 Legend Double Dagger 4.7 1.6 80 36 2 64.4 97.16     Mainly Clear
05:00 Legend Double Dagger 2.9 0.5 84 31 6 64.4 97.24     LegendNANA
06:00 Legend Double Dagger 4.0 0.9 80 28 7 64.4 97.30     LegendNANA
07:00 Legend Double Dagger 1.7 -0.2 87 2 5 64.4 97.37     Clear
08:00 Legend Double Dagger 4.8 2.5 85 4 4 64.4 97.42     LegendNANA
09:00 Legend Double Dagger 6.7 3.2 78 0 1 64.4 97.44     LegendNANA
10:00 Legend Double Dagger 8.1 3.0 70 16 5 64.4 97.45     Clear
11:00 Legend Double Dagger 10.2 3.1 61 11 9 64.4 97.40     LegendNANA
12:00 Legend Double Dagger 11.2 3.3 58 8 10 64.4 97.34     LegendNANA
13:00 Legend Double Dagger 12.9 0.4 42 9 18 64.4 97.29     Mostly Cloudy
14:00 Legend Double Dagger 14.0 0.0 38 10 19 64.4 97.27     LegendNANA
15:00 Legend Double Dagger 14.1 0.8 40 10 22 64.4 97.26     LegendNANA
16:00 Legend Double Dagger 12.4 0.9 45 10 17 64.4 97.22     Mostly Cloudy
17:00 Legend Double Dagger 11.6 1.3 49 11 13 64.4 97.21     LegendNANA
18:00 Legend Double Dagger 10.9 2.0 54 11 17 64.4 97.20     LegendNANA
19:00 Legend Double Dagger 9.9 2.3 59 10 12 64.4 97.20     Mostly Cloudy
20:00 Legend Double Dagger 9.8 2.2 59 11 16 64.4 97.18     LegendNANA
21:00 Legend Double Dagger 9.8 1.7 57 11 12 64.4 97.20     LegendNANA
22:00 Legend Double Dagger 8.7 2.3 64 11 9 64.4 97.23     Mostly Cloudy
23:00 Legend Double Dagger 9.6 2.5 61 12 13 64.4 97.22     LegendNANA

Notes on Data Quality.

Legend

  • E = Estimated
  • M = Missing
  • NA = Not Available
  • ‡ = Partner data that is not subject to review by the National Climate Archives
Date modified: